Regional Weather Roundup
Issued by NWS

Home | Current Version | Previous Version | Graphics & Text | Print | Product List | Glossary On
Versions: 1 2 3 4 5 6 7 8 9 10 11 12 13 14 15 16 17 18 19 20 21 22 23 24 25 26 27 28 29 30 31 32 33 34 35 36 37 38 39 40 41 42 43 44 45 46 47 48 49 50
000
ASUS43 KOAX 221710
RWRNE

WEATHER ROUNDUP FOR NEBRASKA
NATIONAL WEATHER SERVICE OMAHA NE
1200 PM CDT WED OCT 22 2014

NOTES: SATELLITE DATA IS BEING USED TO AUGMENT CLOUD COVER ABOVE
       12000 FEET.
       "FAIR" INDICATES FEW OR NO CLOUDS BELOW 12,000 FEET WITH NO
       SIGNIFICANT WEATHER AND/OR OBSTRUCTIONS TO VISIBILITY.

  * THESE STATIONS DO NOT REPORT WEATHER SUCH AS RAIN...SNOW OR FOG.

NEZ001>004-019>022-054>056-221800-
NEBRASKA PANHANDLE

CITY           SKY/WX    TMP DP  RH WIND       PRES   REMARKS
SCOTTSBLUFF    SUNNY     59  36  42 NW14      30.09R
ALLIANCE         N/A     59  38  45 NW13      30.06R
CHADRON        MOSUNNY   58  41  53 N8        30.06R
KIMBALL        SUNNY     59  33  38 NW17G24   30.08S
SIDNEY         SUNNY     61  37  41 N18       30.09R
$$

NEZ057>060-069>072-079>082-221800-
SOUTHWEST NEBRASKA

CITY           SKY/WX    TMP DP  RH WIND       PRES   REMARKS
NORTH PLATTE   CLOUDY    59  54  83 E6        30.02R
IMPERIAL       PTSUNNY   66  49  54 N5        30.04R
LEXINGTON      CLOUDY    64  53  68 S9        30.02S
MCCOOK         LGT RAIN  62  51  67 CALM      30.02R
OGALLALA       MOSUNNY   64  54  70 NW6       30.04R
$$

NEZ005>010-023>029-035>040-094-221800-
NORTH CENTRAL NEBRASKA

CITY           SKY/WX    TMP DP  RH WIND       PRES   REMARKS
VALENTINE      CLOUDY    52  48  86 NW12      30.00R
AINSWORTH      LGT RAIN  54  48  81 N7        29.97F
BROKEN BOW     CLOUDY    64  52  64 W6        30.01R
O`NEILL        CLOUDY    67  56  68 SW15G21   29.98R
ORD            PTSUNNY   64  53  67 S12       29.99S
THEDFORD       CLOUDY    60  53  76 N6        30.02R
$$

NEZ041-046>049-061>064-073>077-083>087-221800-
SOUTH CENTRAL NEBRASKA

CITY           SKY/WX    TMP DP  RH WIND       PRES   REMARKS
GRAND ISLAND   CLOUDY    72  56  57 S17G23    30.01S
AURORA         PTSUNNY   70  53  53 S13G21    30.02S
HASTINGS       CLOUDY    69  53  56 S14G22    30.02S
HEBRON         SUNNY     73  51  46 S15G21    30.05S
HOLDREGE       LGT RAIN  63  54  73 SW13G20   30.02S
KEARNEY *      CLOUDY    64  54  68 S13       30.03S
YORK           MOSUNNY   72  54  53 S17G24    30.03F
$$

NEZ011>018-030>034-042>045-221800-
NORTHEAST NEBRASKA

CITY           SKY/WX    TMP DP  RH WIND       PRES   REMARKS
NORFOLK        MOSUNNY   71  52  50 S21G29    29.99F
ALBION         PTSUNNY   69  54  58 S13G20    30.01R
BLAIR          SUNNY     67  49  53 SE13G24   30.07F
COLUMBUS *     SUNNY     72  52  49 S14G20    30.04S
FREMONT        MOSUNNY   68  51  54 SE9       30.06S
TEKAMAH        MOSUNNY   68  50  52 S16       30.07R
WAYNE          MOSUNNY   67  50  54 S20G26    30.02S
$$

NEZ050>053-065>068-078-088>093-221800-
SOUTHEAST NEBRASKA

CITY           SKY/WX    TMP DP  RH WIND       PRES   REMARKS
LINCOLN        SUNNY     73  53  49 S17       30.06F
OMAHA EPPLEY   MOSUNNY   67  48  50 S20       30.08F
BEATRICE       SUNNY     71  54  53 S12       30.08S
FALLS CITY     LGT RAIN  68  52  56 SE14      30.12F
NEBRASKA CITY  SUNNY     67  46  47 S14       30.11F
PLATTSMOUTH    SUNNY     65  47  52 SE14G21   30.10F
$$

NEZ044-045-051>053-067-221800-
OMAHA AREA

CITY           SKY/WX    TMP DP  RH WIND       PRES   REMARKS
OMAHA EPPLEY   MOSUNNY   67  48  50 S20       30.08F
BLAIR          SUNNY     67  49  53 SE13G24   30.07F
FREMONT        MOSUNNY   68  51  54 SE9       30.06S
MILLARD        SUNNY     66  51  58 SE16      30.07F
OFFUTT AFB     SUNNY     67  52  58 SE18      30.08F
PLATTSMOUTH    SUNNY     65  47  52 SE14G21   30.10F
WAHOO          FAIR      70  49  48 S15       30.06S
$$



USA.gov is the U.S. government's official web portal to all federal, state and local government web resources and services.